Regional Weather Roundup
Issued by NWS

Home | Current Version | Previous Version | Graphics & Text | Print | Product List | Glossary On
Versions: 1 2 3 4 5 6 7 8 9 10 11 12 13 14 15 16 17 18 19 20 21 22 23 24 25 26 27 28 29 30 31 32 33 34 35 36 37 38 39 40 41 42 43 44 45 46 47 48 49 50
610
ASUS45 KCYS 250410
RWRWY

WYOMING REGIONAL WEATHER ROUNDUP
NATIONAL WEATHER SERVICE CHEYENNE WY
1000 PM MDT FRI MAR 24 2017

NOTE:  "FAIR" INDICATES FEW OR NO CLOUDS BELOW 12,000 FEET
WITH NO SIGNIFICANT WEATHER AND/OR OBSTRUCTIONS TO VISIBILITY.

WYZ001-250500-
YELLOWSTONE NATIONAL PARK

CITY           SKY/WX    TMP DP  RH WIND       PRES   REMARKS
LK YELLOWSTONE   N/A     32  23  69 MISG      30.07R
W YELLOWSTONE  NOT AVBL

$$
WYZ002>013-054>058-071-098>099-250500-
NORTHERN WYOMING

CITY           SKY/WX    TMP DP  RH WIND       PRES   REMARKS
JACKSON        CLOUDY    39  28  65 SW18      30.06S WCI  30
CODY           FAIR      48  20  32 SW12      29.92S
GREYBULL       FAIR      52  33  48 SE8       29.89F
WORLAND        FAIR      47  35  63 SE14      29.91F
SHERIDAN       FAIR      40  32  73 VRB7      29.85F
BUFFALO        FAIR      52  28  39 S21G26    29.89F
GILLETTE       FAIR      45  29  53 S15       29.95F
HULETT         FAIR      50  28  43 S16       29.98F
NEWCASTLE      FAIR      45  28  53 SE16G25   30.06S

$$
WYZ014>020-022>026-101>103-250500-
CENTRAL WYOMING

CITY           SKY/WX    TMP DP  RH WIND       PRES   REMARKS
BIG PINEY      CLOUDY    34  29  82 E5        30.11S WCI  30
PINEDALE       FAIR      32  27  80 CALM      30.11F
DUBOIS         FAIR      37  21  52 N21       30.00F WCI  27
LANDER         FAIR      51  13  21 SW10      29.96F
RIVERTON       FAIR      45  30  55 SW8       29.98F
CASPER         FAIR      39  27  62 SW6       30.03S WCI  35
DOUGLAS        FAIR      44  26  49 S10       30.06S

$$
WYZ021-027>030-104>119-250500-
SOUTHERN WYOMING

CITY           SKY/WX    TMP DP  RH WIND       PRES   REMARKS
EVANSTON       FAIR      42  29  59 E6        30.08F
KEMMERER         N/A     34  27  75 N9        30.11F WCI  26
FORT BRIDGER   MOCLDY    43  32  65 CALM      30.12F
ROCK SPRINGS   FAIR      44  28  53 S5        30.10F
DIXON            N/A     35  25  67 CALM      30.18R
RAWLINS        FAIR      39  18  42 W5        30.12S
SARATOGA       FAIR      34  21  60 CALM      30.14S
LARAMIE        FAIR      32  22  66 S9        30.13S WCI  24
CHEYENNE       FAIR      35  24  64 SW7       30.14R WCI  29
TORRINGTON     FAIR      41  26  55 SE7       30.10R
PINE BLUFFS    FAIR      32  25  74 CALM      30.13S

$$




USA.gov is the U.S. government's official web portal to all federal, state and local government web resources and services.